гора Собер

Россия / Краснодарский край     44°41′41″N   38°33′55″E
темп.,
°C
ветер,
м/с
пор.,
м/с
влажн.,
%
обл.,
%
осадки,
мм/ч
давл.,
гПа
погр.,
м
14 мая, пт
пт1400:00+15ю22734 0.0 100915
03:00+16ю22434 0.0 100916
06:00+16ююз22485 0.0 101016
09:00+24с114626 0.0 1010243
12:00+27ссв23425 0.0 1010717
15:00+28вюв143922 0.0 1010965
18:00+24ю1164100 0.0 101015
21:00+16зсз12864 0.0 101214
15 мая, сб
сб1500:00+15зюз22770 0.0 101211
03:00+14ююз11780 0.0 101311
06:00+14зюз11785 0.0 101411
09:00+20ссв11525 0.0 1014379
12:00+24св234976 0.0 1014863
15:00+25ссв32548 0.0 1013858
18:00+23св23704 0.1 1012499
21:00+17ссз01875 0.1 101212
16 мая, вс
вс1600:00+16ю119293 0.1 101111
03:00+16сз1195100 0.3 101111
06:00+16в1197100 0.0 101028
09:00+21всв2386100 0.0 1009397
12:00+25всв4670100 0.0 1007786
15:00+26всв466799 0.0 10061165
18:00+25всв48782 0.0 1004702
21:00+20в22965 0.0 100436
17 мая, пн
пн1700:00+19юв119519 0.0 100311
03:00+19юз229199 0.0 100322
06:00+17ююв3880100 0.0 1004269
09:00+21ююв51363100 0.0 1005757
12:00+22ююз41057100 0.0 1006912
15:00+22юз37545 0.0 1007822
18:00+18ю367581 0.1 1008285
21:00+14ююз349060 0.3 1011105
18 мая, вт
вт1800:00+14ююз379297 0.0 1010327
03:00+14ююз2589100 0.0 1012388
06:00+15ююз3586100 0.0 1013414
09:00+16ю368449 0.0 1014530
12:00+21ю33636 0.0 1014930
15:00+22зсз236347 0.1 10141090
18:00+21з137010 0.2 1015387
21:00+14ююз22940 0.3 101637